Find Michibiki-4

NORAD ID: 42965 Int'l Des: 2017-062 Owner: NUSS/JAXA Country: J operational
HEOGSO

Live-Position

3D-Globus wird geladen...

Über Michibiki-4

Beschreibung wird geladen...

Nächste Überflüge

Passes for default location (London). Set your location on the main map for personalized predictions.

Höhenverlauf

Loading altitude history...

Zweizeiliger Elementsatz

1 42965U 17062A 26105.53943836 -.00000289 00000-0 00000-0 0 9997
2 42965 40.1466 344.2850 0745440 270.5878 283.3867 1.00268659 31172
Epoch: 15. Apr. 2026 • Age: 44 hours

Aktueller Status

Höhe 38099.6 km
Geschwindigkeit 2.91 km/s
Subsatellitenpunkt 29.58°N, 142.3°E
Startdatum 9. Okt. 2017
Alter 8.5 years
Typ other

Technische Details

Klassifizierung Payload
Masse 4020.00 kg
Trockenmasse 1802.00 kg
Gesamtmasse 4020.00 kg
Länge 6.20 m
Durchmesser 2.90 m
Spannweite 25.30 m
Form Box + 2 Pan
Hersteller MELCO
Bus-Typ DS-2000
Phasenstatus In Orbit
Besitzer/Staat NUSS/JAXA/J

Most Searched